Time,TemperatureF,DewpointF,PressureIn,WindDirection,WindDirectionDegrees,WindSpeedMPH,WindSpeedGustMPH,Humidity,HourlyPrecipIn,Conditions,Clouds,dailyrainin,SoftwareType,DateUTC
2013-01-24 00:02:00,21.0,9.0,30.31,North,7,16.0,-999.0,58,-99.99,,,-99.99,,2013-01-24 06:02:00,
2013-01-24 00:12:00,21.0,9.0,30.31,North,7,16.0,-999.0,58,-99.99,,,-99.99,,2013-01-24 06:12:00,
2013-01-24 00:22:00,20.0,8.0,30.32,North,2,15.0,-999.0,58,-99.99,,,-99.99,,2013-01-24 06:22:00,
2013-01-24 00:32:00,19.0,7.0,30.33,North,352,13.0,-999.0,59,-99.99,,,-99.99,,2013-01-24 06:32:00,
2013-01-24 00:42:00,19.0,7.0,30.33,North,352,13.0,-999.0,59,-99.99,,,-99.99,,2013-01-24 06:42:00,
2013-01-24 00:52:00,19.0,7.0,30.33,NNE,12,14.0,-999.0,59,-99.99,,,-99.99,,2013-01-24 06:52:00,
2013-01-24 01:02:00,18.0,6.0,30.36,North,358,16.0,-999.0,60,-99.99,,,-99.99,,2013-01-24 07:02:00,
2013-01-24 01:12:00,18.0,6.0,30.36,North,358,16.0,-999.0,60,-99.99,,,-99.99,,2013-01-24 07:12:00,
2013-01-24 01:22:00,17.0,6.0,30.37,North,355,12.0,-999.0,61,-99.99,,,-99.99,,2013-01-24 07:22:00,
2013-01-24 01:33:00,17.0,7.0,30.37,NNW,337,15.0,-999.0,63,-99.99,,,-99.99,,2013-01-24 07:33:00,
2013-01-24 01:42:00,17.0,7.0,30.37,NNW,337,15.0,-999.0,63,-99.99,,,-99.99,,2013-01-24 07:42:00,
2013-01-24 01:52:00,16.0,6.0,30.39,NNW,346,13.0,-999.0,63,-99.99,,,-99.99,,2013-01-24 07:52:00,
2013-01-24 02:02:00,16.0,6.0,30.39,NNW,347,13.0,-999.0,65,-99.99,,,-99.99,,2013-01-24 08:02:00,
2013-01-24 02:12:00,16.0,6.0,30.39,NNW,347,13.0,-999.0,65,-99.99,,,-99.99,,2013-01-24 08:12:00,
2013-01-24 02:22:00,16.0,6.0,30.40,NNW,343,14.0,-999.0,65,-99.99,,,-99.99,,2013-01-24 08:22:00,
2013-01-24 02:33:00,15.0,6.0,30.41,North,6,12.0,-999.0,66,-99.99,,,-99.99,,2013-01-24 08:33:00,
2013-01-24 02:42:00,15.0,6.0,30.41,North,6,12.0,-999.0,66,-99.99,,,-99.99,,2013-01-24 08:42:00,
2013-01-24 02:52:00,15.0,6.0,30.42,North,349,13.0,-999.0,67,-99.99,,,-99.99,,2013-01-24 08:52:00,
2013-01-24 03:03:00,15.0,6.0,30.43,NNW,339,13.0,-999.0,68,-99.99,,,-99.99,,2013-01-24 09:03:00,
2013-01-24 03:12:00,15.0,6.0,30.43,NNW,339,13.0,-999.0,68,-99.99,,,-99.99,,2013-01-24 09:12:00,
2013-01-24 03:23:00,15.0,7.0,30.42,NNE,12,9.0,-999.0,69,-99.99,,,-99.99,,2013-01-24 09:23:00,
2013-01-24 03:33:00,15.0,6.0,30.43,NNE,22,11.0,-999.0,68,-99.99,,,-99.99,,2013-01-24 09:33:00,
2013-01-24 03:42:00,15.0,6.0,30.43,NNE,22,11.0,-999.0,68,-99.99,,,-99.99,,2013-01-24 09:42:00,
2013-01-24 03:52:00,14.0,5.0,30.44,NE,43,12.0,-999.0,68,-99.99,,,-99.99,,2013-01-24 09:52:00,
2013-01-24 04:03:00,14.0,2.0,30.45,NE,34,11.0,-999.0,57,-99.99,,,-99.99,,2013-01-24 10:03:00,
2013-01-24 04:12:00,14.0,2.0,30.45,NE,34,11.0,-999.0,57,-99.99,,,-99.99,,2013-01-24 10:12:00,
2013-01-24 04:22:00,14.0,1.0,30.45,NNE,25,9.0,-999.0,56,-99.99,,,-99.99,,2013-01-24 10:22:00,
2013-01-24 04:33:00,13.0,1.0,30.47,NE,35,10.0,-999.0,57,-99.99,,,-99.99,,2013-01-24 10:33:00,
2013-01-24 04:43:00,13.0,1.0,30.47,NE,35,10.0,-999.0,57,-99.99,,,-99.99,,2013-01-24 10:43:00,
2013-01-24 04:52:00,13.0,1.0,30.47,NE,52,10.0,-999.0,57,-99.99,,,-99.99,,2013-01-24 10:52:00,
2013-01-24 05:02:00,13.0,1.0,30.47,NNE,28,8.0,-999.0,58,-99.99,,,-99.99,,2013-01-24 11:02:00,
2013-01-24 05:12:00,13.0,1.0,30.47,NNE,28,8.0,-999.0,58,-99.99,,,-99.99,,2013-01-24 11:12:00,
2013-01-24 05:22:00,12.0,1.0,30.48,NE,34,9.0,-999.0,60,-99.99,,,-99.99,,2013-01-24 11:22:00,
2013-01-24 05:33:00,12.0,1.0,30.49,NNE,19,10.0,-999.0,61,-99.99,,,-99.99,,2013-01-24 11:33:00,
2013-01-24 05:43:00,12.0,1.0,30.49,NNE,19,10.0,-999.0,61,-99.99,,,-99.99,,2013-01-24 11:43:00,
2013-01-24 05:52:00,12.0,2.0,30.50,NNE,27,9.0,-999.0,62,-99.99,,,-99.99,,2013-01-24 11:52:00,
2013-01-24 06:03:00,12.0,2.0,30.50,NNE,25,6.0,-999.0,62,-99.99,,,-99.99,,2013-01-24 12:03:00,
2013-01-24 06:12:00,12.0,2.0,30.50,NNE,25,6.0,-999.0,62,-99.99,,,-99.99,,2013-01-24 12:12:00,
2013-01-24 06:22:00,11.0,1.0,30.50,NNE,25,8.0,-999.0,63,-99.99,,,-99.99,,2013-01-24 12:22:00,
2013-01-24 06:33:00,11.0,1.0,30.52,NNE,22,6.0,-999.0,64,-99.99,,,-99.99,,2013-01-24 12:33:00,
2013-01-24 06:42:00,11.0,1.0,30.52,NNE,22,6.0,-999.0,64,-99.99,,,-99.99,,2013-01-24 12:42:00,
2013-01-24 06:53:00,11.0,1.0,30.51,NE,42,6.0,-999.0,63,-99.99,,,-99.99,,2013-01-24 12:53:00,
2013-01-24 07:03:00,11.0,1.0,30.53,NE,35,8.0,-999.0,63,-99.99,,,-99.99,,2013-01-24 13:03:00,
2013-01-24 07:12:00,11.0,1.0,30.53,NE,35,8.0,-999.0,63,-99.99,,,-99.99,,2013-01-24 13:12:00,
2013-01-24 07:23:00,11.0,0.0,30.54,NE,46,8.0,-999.0,59,-99.99,,,-99.99,,2013-01-24 13:23:00,
2013-01-24 07:33:00,11.0,0.0,30.53,NNE,20,6.0,-999.0,59,-99.99,,,-99.99,,2013-01-24 13:33:00,
2013-01-24 07:42:00,11.0,0.0,30.53,NNE,20,6.0,-999.0,59,-99.99,,,-99.99,,2013-01-24 13:42:00,
2013-01-24 07:52:00,11.0,0.0,30.53,NNE,12,6.0,-999.0,60,-99.99,,,-99.99,,2013-01-24 13:52:00,
2013-01-24 08:02:00,11.0,0.0,30.53,NE,35,8.0,-999.0,61,-99.99,,,-99.99,,2013-01-24 14:02:00,
2013-01-24 08:12:00,11.0,0.0,30.53,NE,35,8.0,-999.0,61,-99.99,,,-99.99,,2013-01-24 14:12:00,
2013-01-24 08:23:00,10.0,-1.0,30.54,NNE,22,9.0,-999.0,60,-99.99,,,-99.99,,2013-01-24 14:23:00,
2013-01-24 08:33:00,11.0,0.0,30.53,NE,43,7.0,-999.0,59,-99.99,,,-99.99,,2013-01-24 14:33:00,
2013-01-24 08:43:00,11.0,0.0,30.53,NE,43,7.0,-999.0,59,-99.99,,,-99.99,,2013-01-24 14:43:00,
2013-01-24 08:53:00,11.0,-1.0,30.55,NE,39,6.0,-999.0,58,-99.99,,,-99.99,,2013-01-24 14:53:00,
2013-01-24 09:03:00,11.0,-1.0,30.56,NE,46,6.0,-999.0,58,-99.99,,,-99.99,,2013-01-24 15:03:00,
2013-01-24 09:12:00,11.0,-1.0,30.56,NE,46,6.0,-999.0,58,-99.99,,,-99.99,,2013-01-24 15:12:00,
2013-01-24 09:23:00,12.0,0.0,30.57,ENE,57,7.0,-999.0,58,-99.99,,,-99.99,,2013-01-24 15:23:00,
2013-01-24 09:33:00,12.0,0.0,30.57,ENE,57,7.0,-999.0,58,-99.99,,,-99.99,,2013-01-24 15:33:00,
2013-01-24 09:43:00,12.0,0.0,30.58,ENE,59,7.0,-999.0,58,-99.99,,,-99.99,,2013-01-24 15:43:00,
2013-01-24 09:52:00,12.0,0.0,30.59,ENE,64,7.0,-999.0,57,-99.99,,,-99.99,,2013-01-24 15:52:00,
2013-01-24 10:03:00,13.0,1.0,30.60,ESE,110,7.0,-999.0,57,-99.99,,,-99.99,,2013-01-24 16:03:00,
2013-01-24 10:12:00,13.0,1.0,30.60,ESE,110,7.0,-999.0,57,-99.99,,,-99.99,,2013-01-24 16:12:00,
2013-01-24 10:23:00,13.0,0.0,30.60,ENE,57,6.0,-999.0,56,-99.99,,,-99.99,,2013-01-24 16:23:00,
2013-01-24 10:33:00,13.0,1.0,30.60,East,92,6.0,-999.0,57,-99.99,,,-99.99,,2013-01-24 16:33:00,
2013-01-24 10:42:00,13.0,1.0,30.60,East,92,6.0,-999.0,57,-99.99,,,-99.99,,2013-01-24 16:42:00,
2013-01-24 11:02:00,15.0,2.0,30.59,East,84,5.0,-999.0,56,-99.99,,,-99.99,,2013-01-24 17:02:00,
2013-01-24 11:12:00,15.0,2.0,30.59,East,84,5.0,-999.0,56,-99.99,,,-99.99,,2013-01-24 17:12:00,
2013-01-24 11:22:00,16.0,3.0,30.59,ESE,115,4.0,-999.0,56,-99.99,,,-99.99,,2013-01-24 17:22:00,
2013-01-24 11:32:00,16.0,3.0,30.59,East,87,5.0,-999.0,56,-99.99,,,-99.99,,2013-01-24 17:32:00,
2013-01-24 11:42:00,16.0,3.0,30.59,East,87,5.0,-999.0,56,-99.99,,,-99.99,,2013-01-24 17:42:00,
2013-01-24 11:52:00,17.0,4.0,30.59,ENE,69,5.0,-999.0,56,-99.99,,,-99.99,,2013-01-24 17:52:00,
2013-01-24 12:02:00,17.0,4.0,30.58,East,93,3.0,-999.0,55,-99.99,,,-99.99,,2013-01-24 18:02:00,
2013-01-24 12:12:00,18.0,5.0,30.57,ENE,62,4.0,-999.0,56,-99.99,,,-99.99,,2013-01-24 18:12:00,
2013-01-24 12:22:00,18.0,5.0,30.57,ENE,62,4.0,-999.0,56,-99.99,,,-99.99,,2013-01-24 18:22:00,
2013-01-24 12:32:00,18.0,5.0,30.56,East,89,5.0,-999.0,56,-99.99,,,-99.99,,2013-01-24 18:32:00,
2013-01-24 12:42:00,18.0,5.0,30.56,East,89,5.0,-999.0,56,-99.99,,,-99.99,,2013-01-24 18:42:00,
2013-01-24 12:53:00,19.0,6.0,30.55,East,81,6.0,-999.0,56,-99.99,,,-99.99,,2013-01-24 18:53:00,
2013-01-24 13:02:00,20.0,7.0,30.54,ESE,104,6.0,-999.0,56,-99.99,,,-99.99,,2013-01-24 19:02:00,
2013-01-24 13:12:00,20.0,7.0,30.53,East,83,6.0,-999.0,56,-99.99,,,-99.99,,2013-01-24 19:12:00,
2013-01-24 13:22:00,20.0,7.0,30.53,East,83,6.0,-999.0,56,-99.99,,,-99.99,,2013-01-24 19:22:00,
2013-01-24 13:32:00,21.0,8.0,30.52,ESE,119,8.0,-999.0,56,-99.99,,,-99.99,,2013-01-24 19:32:00,
2013-01-24 13:42:00,22.0,8.0,30.50,ESE,111,8.0,-999.0,55,-99.99,,,-99.99,,2013-01-24 19:42:00,
2013-01-24 13:52:00,22.0,8.0,30.50,ESE,111,8.0,-999.0,55,-99.99,,,-99.99,,2013-01-24 19:52:00,
2013-01-24 14:02:00,22.0,8.0,30.48,East,96,8.0,-999.0,54,-99.99,,,-99.99,,2013-01-24 20:02:00,
2013-01-24 14:11:00,23.0,8.0,30.47,East,88,8.0,-999.0,53,-99.99,,,-99.99,,2013-01-24 20:11:00,
2013-01-24 14:22:00,23.0,8.0,30.47,East,88,8.0,-999.0,53,-99.99,,,-99.99,,2013-01-24 20:22:00,
2013-01-24 14:32:00,23.0,8.0,30.47,ESE,120,8.0,-999.0,53,-99.99,,,-99.99,,2013-01-24 20:32:00,
2013-01-24 14:42:00,24.0,9.0,30.46,SE,129,9.0,-999.0,52,-99.99,,,-99.99,,2013-01-24 20:42:00,
2013-01-24 14:52:00,24.0,9.0,30.46,SE,129,9.0,-999.0,52,-99.99,,,-99.99,,2013-01-24 20:52:00,
2013-01-24 15:02:00,24.0,9.0,30.47,SE,128,9.0,-999.0,52,-99.99,,,-99.99,,2013-01-24 21:02:00,
2013-01-24 15:12:00,24.0,9.0,30.46,SE,146,8.0,-999.0,51,-99.99,,,-99.99,,2013-01-24 21:12:00,
2013-01-24 15:22:00,24.0,9.0,30.46,SE,146,8.0,-999.0,51,-99.99,,,-99.99,,2013-01-24 21:22:00,
2013-01-24 15:33:00,24.0,8.0,30.45,SE,127,9.0,-999.0,50,-99.99,,,-99.99,,2013-01-24 21:33:00,
2013-01-24 15:42:00,24.0,8.0,30.45,SE,127,9.0,-999.0,50,-99.99,,,-99.99,,2013-01-24 21:42:00,
2013-01-24 15:53:00,24.0,8.0,30.44,ESE,121,9.0,-999.0,50,-99.99,,,-99.99,,2013-01-24 21:53:00,
2013-01-24 16:02:00,24.0,9.0,30.44,ESE,118,8.0,-999.0,52,-99.99,,,-99.99,,2013-01-24 22:02:00,
2013-01-24 16:12:00,24.0,9.0,30.44,ESE,118,8.0,-999.0,52,-99.99,,,-99.99,,2013-01-24 22:12:00,
2013-01-24 16:22:00,24.0,9.0,30.43,SE,129,8.0,-999.0,53,-99.99,,,-99.99,,2013-01-24 22:22:00,
2013-01-24 16:32:00,24.0,9.0,30.43,ESE,102,7.0,-999.0,52,-99.99,,,-99.99,,2013-01-24 22:32:00,
2013-01-24 16:42:00,24.0,9.0,30.43,ESE,102,7.0,-999.0,52,-99.99,,,-99.99,,2013-01-24 22:42:00,
2013-01-24 16:53:00,24.0,9.0,30.42,East,97,7.0,-999.0,53,-99.99,,,-99.99,,2013-01-24 22:53:00,
2013-01-24 17:02:00,24.0,9.0,30.43,SE,146,8.0,-999.0,53,-99.99,,,-99.99,,2013-01-24 23:02:00,
2013-01-24 17:12:00,24.0,9.0,30.43,SE,146,8.0,-999.0,53,-99.99,,,-99.99,,2013-01-24 23:12:00,
2013-01-24 17:22:00,24.0,10.0,30.42,SE,145,8.0,-999.0,54,-99.99,,,-99.99,,2013-01-24 23:22:00,
2013-01-24 17:32:00,24.0,10.0,30.41,SE,126,8.0,-999.0,55,-99.99,,,-99.99,,2013-01-24 23:32:00,
2013-01-24 17:42:00,24.0,10.0,30.41,SE,126,8.0,-999.0,55,-99.99,,,-99.99,,2013-01-24 23:42:00,
2013-01-24 17:52:00,23.0,10.0,30.40,SE,142,6.0,-999.0,56,-99.99,,,-99.99,,2013-01-24 23:52:00,
2013-01-24 18:02:00,23.0,10.0,30.40,ESE,118,6.0,-999.0,56,-99.99,,,-99.99,,2013-01-25 00:02:00,
2013-01-24 18:12:00,23.0,10.0,30.40,ESE,118,6.0,-999.0,56,-99.99,,,-99.99,,2013-01-25 00:12:00,
2013-01-24 18:22:00,23.0,10.0,30.39,SE,139,7.0,-999.0,56,-99.99,,,-99.99,,2013-01-25 00:22:00,
2013-01-24 18:32:00,23.0,10.0,30.40,ESE,123,5.0,-999.0,57,-99.99,,,-99.99,,2013-01-25 00:32:00,
2013-01-24 18:42:00,23.0,10.0,30.40,ESE,123,5.0,-999.0,57,-99.99,,,-99.99,,2013-01-25 00:42:00,
2013-01-24 18:52:00,24.0,11.0,30.38,ESE,119,7.0,-999.0,57,-99.99,,,-99.99,,2013-01-25 00:52:00,
2013-01-24 19:01:00,24.0,13.0,30.38,SE,146,6.0,-999.0,61,-99.99,,,-99.99,,2013-01-25 01:01:00,
2013-01-24 19:12:00,24.0,10.0,30.38,SE,139,6.0,-999.0,55,-99.99,,,-99.99,,2013-01-25 01:12:00,
2013-01-24 19:21:00,24.0,10.0,30.38,SE,139,6.0,-999.0,55,-99.99,,,-99.99,,2013-01-25 01:21:00,
2013-01-24 19:32:00,24.0,10.0,30.38,SSE,162,7.0,-999.0,54,-99.99,,,-99.99,,2013-01-25 01:32:00,
2013-01-24 19:42:00,24.0,10.0,30.38,SSE,162,7.0,-999.0,54,-99.99,,,-99.99,,2013-01-25 01:42:00,
2013-01-24 19:52:00,24.0,10.0,30.37,ESE,123,7.0,-999.0,54,-99.99,,,-99.99,,2013-01-25 01:52:00,
2013-01-24 20:02:00,24.0,10.0,30.36,SE,138,7.0,-999.0,54,-99.99,,,-99.99,,2013-01-25 02:02:00,
2013-01-24 20:11:00,24.0,10.0,30.36,SE,138,7.0,-999.0,54,-99.99,,,-99.99,,2013-01-25 02:11:00,
2013-01-24 20:22:00,24.0,10.0,30.36,SE,144,7.0,-999.0,54,-99.99,,,-99.99,,2013-01-25 02:22:00,
2013-01-24 20:32:00,24.0,10.0,30.36,SE,127,8.0,-999.0,54,-99.99,,,-99.99,,2013-01-25 02:32:00,
2013-01-24 20:42:00,24.0,10.0,30.35,SSE,162,8.0,-999.0,54,-99.99,,,-99.99,,2013-01-25 02:42:00,
2013-01-24 20:52:00,24.0,10.0,30.35,SSE,162,8.0,-999.0,54,-99.99,,,-99.99,,2013-01-25 02:52:00,
2013-01-24 21:02:00,24.0,10.0,30.35,ESE,116,8.0,-999.0,55,-99.99,,,-99.99,,2013-01-25 03:02:00,
2013-01-24 21:12:00,23.0,10.0,30.32,SE,145,8.0,-999.0,56,-99.99,,,-99.99,,2013-01-25 03:12:00,
2013-01-24 21:22:00,23.0,10.0,30.32,SE,145,8.0,-999.0,56,-99.99,,,-99.99,,2013-01-25 03:22:00,
2013-01-24 21:32:00,23.0,10.0,30.31,SE,126,9.0,-999.0,56,-99.99,,,-99.99,,2013-01-25 03:32:00,
2013-01-24 21:41:00,23.0,10.0,30.31,SE,126,9.0,-999.0,56,-99.99,,,-99.99,,2013-01-25 03:41:00,
2013-01-24 21:52:00,23.0,10.0,30.29,ESE,107,6.0,-999.0,56,-99.99,,,-99.99,,2013-01-25 03:52:00,
2013-01-24 22:02:00,23.0,10.0,30.30,SE,130,10.0,-999.0,56,-99.99,,,-99.99,,2013-01-25 04:02:00,
2013-01-24 22:12:00,23.0,10.0,30.27,SE,133,10.0,-999.0,56,-99.99,,,-99.99,,2013-01-25 04:12:00,
2013-01-24 22:22:00,23.0,10.0,30.27,SE,133,10.0,-999.0,56,-99.99,,,-99.99,,2013-01-25 04:22:00,
2013-01-24 22:32:00,24.0,10.0,30.28,SE,145,8.0,-999.0,55,-99.99,,,-99.99,,2013-01-25 04:32:00,
2013-01-24 22:41:00,24.0,10.0,30.28,SE,145,8.0,-999.0,55,-99.99,,,-99.99,,2013-01-25 04:41:00,
2013-01-24 22:52:00,24.0,10.0,30.29,ESE,118,8.0,-999.0,55,-99.99,,,-99.99,,2013-01-25 04:52:00,
2013-01-24 23:03:00,24.0,10.0,30.29,East,91,5.0,-999.0,54,-99.99,,,-99.99,,2013-01-25 05:03:00,
2013-01-24 23:12:00,24.0,9.0,30.32,SE,135,5.0,-999.0,53,-99.99,,,-99.99,,2013-01-25 05:12:00,
2013-01-24 23:22:00,24.0,9.0,30.32,SE,135,5.0,-999.0,53,-99.99,,,-99.99,,2013-01-25 05:22:00,
2013-01-24 23:32:00,24.0,9.0,30.32,ESE,121,6.0,-999.0,53,-99.99,,,-99.99,,2013-01-25 05:32:00,
2013-01-24 23:43:00,24.0,9.0,30.32,ESE,121,6.0,-999.0,53,-99.99,,,-99.99,,2013-01-25 05:43:00,
2013-01-24 23:52:00,24.0,9.0,30.32,SE,127,5.0,-999.0,53,-99.99,,,-99.99,,2013-01-25 05:52:00,